Regional Weather Roundup
Issued by NWS Newport/Morehead, NC

Current Version | Previous Version | Graphics & Text | Print | Product List | Glossary Off
Versions: 1 2 3 4 5 6 7 8 9 10 11 12 13 14 15 16 17 18 19 20 21 22 23 24 25 26 27 28 29 30 31 32 33 34 35 36 37 38 39 40 41 42 43 44 45 46 47 48 49 50

000
ASUS42 KMHX 060513
RWRMHX
WEATHER ROUNDUP FOR EASTERN NORTH CAROLINA
NATIONAL WEATHER SERVICE NEWPORT/MOREHEAD CITY NC
1200 AM EST SAT FEB 06 2016

NOTE: "FAIR" INDICATES FEW OR NO CLOUDS BELOW 12,000 FEET
WITH NO SIGNIFICANT WEATHER AND/OR OBSTRUCTIONS TO VISIBILITY

NCZ015>017-031-032-045>047-102-103-060600-
NORTH COAST

CITY           SKY/WX    TMP DP  RH WIND       PRES   REMARKS
EDENTON        CLEAR     34  31  90 N3        30.42F
ELIZABETH CITY CLEAR     34  27  75 NW7       30.41R
KITTY HAWK     CLEAR     38  24  57 N6        30.39S
MANTEO         CLEAR     39  28  64 N6        30.41S

$$

NCZ045>047-081-094-103-104-060600-
CENTRAL COAST

CITY           SKY/WX    TMP DP  RH WIND       PRES   REMARKS
FRISCO         PTCLDY    42  27  55 N9        30.39F
SWANQUARTER      N/A     32 N/A N/A CALM      30.39S

$$

NCZ095-097-098-100-101-060600-
SOUTHERN COAST

CITY           SKY/WX    TMP DP  RH WIND       PRES   REMARKS
BEAUFORT       CLEAR     37  32  82 NE3       30.40S
CEDAR ISLAND     N/A     43 N/A N/A VRB9G15   30.44S
JACKSONVILLE   CLEAR     33  30  88 CALM      30.41R
PINEY ISLAND   CLEAR    N/A N/A N/A N6        30.40S
WILMINGTON     CLEAR     35  31  85 CALM      30.41R


$$

NCZ011>013-027>030-043-044-078>080-089-090>093-098-060600-
COASTAL PLAIN

CITY           SKY/WX    TMP DP  RH WIND       PRES   REMARKS
AHOSKIE        CLEAR     29  28  95 CALM      30.42S
CLINTON        CLEAR     32  32  99 CALM      30.42R
ELIZABETHTOWN  CLEAR     33  29  88 CALM      30.41S
GOLDSBORO      CLEAR     32  32 100 CALM      30.39S
GREENVILLE     CLEAR     32  32 100 CALM      30.40F
HAVELOCK       CLEAR     36  29  75 CALM      30.41S
KENANSVILLE      N/A     30  30 100 CALM      30.42R
KINSTON        CLEAR     30  29  96 CALM      30.41S
NEW BERN       CLEAR     33  29  85 N5        30.41F
RICHLANDS      CLEAR     30  25  80 CALM      30.41R
ROCKY MOUNT    CLEAR     30  28  92 CALM      30.41F
WASHINGTON     CLEAR     31  29  90 CALM      30.41F
WHITEVILLE     CLEAR     33  31  94 CALM      30.41S

$$

AMZ130-135-150-152-154-156-158-170-250-252-270-ANZ085-086-088-633-658-670-060600-
MARINE OBSERVATIONS

STATION/POSITION TIME  TEMP    WIND        PRES    WAVE   SWELL
                       AIR SEA DIR/SP/G            HT/PER HT/PER
                 (UTC) (F)     (DEG/KT/KT) (MB)    (FT/S) (FT/S)
CHESAPEAKE LIGHT 0500   40     360/ 14/ 15 1030.0
64 E VA BEACH    0450   43 53  360/ 16/ 21 1028.1    9/ 9   7/ 9
DUCK             0400   42 45   10/ 16/ 18 1028.3
2 E DUCK         0411      45                N/A     5/ 9   2/11
OREGON INLET     0400   41 47  350/ 11/ 14 1029.2
13E OREGON INLT  0500      47                N/A     7/11   2/11
HATTERAS CG      0400   43 54  360/ 13/ 18 1029.0
DIAMOND BUOY     0450      73   20/ 16/ 21 1028.9    8/11   7/11
CAPE LOOKOUT     NOT AVBL
BEAUFORT LAB     0400   40 52   30/  3/  4 1028.3
30 SE NEW RVR IN 0408   47 65              1027.9
30 SE NEW RVR IN 0425      65                N/A     4/ 8   2/11
27 SE WRIGHTSVLE 0408   48 69   50/ 14/ 21 1028.3
5 SE WRIGHTSVLE  0408   46 54   40/ 12/ 16 1029.7
225 S CAPE HAT   0450   59 69   40/ 19/ 25   N/A    11/ 9   8/ 9
41 SE CHARLESTON 0450   51 67   30/ 14/ 19 1027.8    4/ 6   2/ 8

$$



USA.gov is the U.S. government's official web portal to all federal, state and local government web resources and services.